Regional Weather Roundup
Issued by NWS Sioux Falls, SD

Home | Current Version | Previous Version | Text Only | Print | Product List | Glossary On
Versions: 1 2 3 4 5 6 7 8 9 10 11 12 13 14 15 16 17 18 19 20 21 22 23 24 25 26 27 28 29 30 31 32 33 34 35 36 37 38 39 40 41 42 43 44 45 46 47 48 49 50
000
ASUS43 KFSD 292110
RWRFSD

WEATHER ROUNDUP FOR SE SOUTH DAKOTA/SW MINNESOTA/NW IOWA
NATIONAL WEATHER SERVICE SIOUX FALLS SD
400 PM CDT TUE JUL 29 2014

NOTE: "FAIR" INDICATES FEW OR NO CLOUDS BELOW 12,000 FEET WITH NO
SIGNIFICANT WEATHER AND OR OBSTRUCTIONS TO VISIBILITY.


SDZ038>040-050-052>070-292200-
SOUTHEAST SOUTH DAKOTA

CITY           SKY/WX    TMP DP  RH WIND       PRES   REMARKS
CHAMBERLAIN    MOSUNNY   78  50  38 NE5       30.18S
HURON          SUNNY     78  51  38 NE10      30.16F
MADISON        FAIR      73  54  49 N7        30.18F
MITCHELL       MOSUNNY   78  52  40 MISG      30.17F
SIOUX FALLS    MOSUNNY   76  52  43 NW8       30.17F
WINNER         FAIR      81  47  30 MISG      30.19F
YANKTON        PTSUNNY   75  52  43 NW7       30.18F
$$

MNZ071-072-080-081-089-090-097-098-292200-
SOUTHWEST MINNESOTA

CITY           SKY/WX    TMP DP  RH WIND       PRES   REMARKS
FAIRMONT       SUNNY     73  46  38 NW12      30.14F
JACKSON        MOSUNNY   72  52  49 NW6       30.16F
LUVERNE        MOSUNNY   77  50  38 W9        30.17F
MARSHALL       SUNNY     75  50  41 NW10      30.15F
MONTEVIDEO     PTSUNNY   79  57  47 N7        30.15F
PIPESTONE      MOSUNNY   73  48  40 N8        30.18F
REDWOOD FALLS  SUNNY     77  52  41 NW7       30.13F
TRACY          SUNNY     73  55  53 NW6       30.16F
WINDOM         MOSUNNY   75  54  46 NW8       30.16S
WORTHINGTON    PTSUNNY   73  54  49 NW10      30.18F
$$

IAZ001>003-012>014-020>022-031-032-NEZ013-014-SDZ071-292200-
NORTHWEST IOWA

CITY           SKY/WX    TMP DP  RH WIND       PRES   REMARKS
CHEROKEE       PTSUNNY   75  53  46 NW12      30.16F
DENISON        MOSUNNY   73  54  49 NW7       30.15F
ESTHERVILLE    SUNNY     74  52  46 W8        30.15F
LE MARS        PTSUNNY   73  54  49 N5        30.18F
ORANGE CITY    PTSUNNY   73  48  40 N7        30.18F
SHELDON        PTSUNNY   75  55  50 VRB6      30.16F
SIOUX CITY     MOSUNNY   79  54  41 N8        30.16F
SPENCER        PTSUNNY   74  54  49 NW7       30.16F
STORM LAKE     MOSUNNY   73  57  56 VRB5      30.17F
$$

ABBREVIATIONS USED IN REMARKS
   TC - TEMPERATURE IN CELSIUS
  WCI - WIND CHILL INDEX
   HX - HEAT INDEX
  VSB - VISIBILITY




USA.gov is the U.S. government's official web portal to all federal, state and local government web resources and services.